Orbital Elements at Epoch 2459200.5 (2020-Dec-17.0) TDB
Reference: JPL 18 (heliocentric ecliptic J2000)
Element | Value | Uncertainty (1-sigma) | Units |
e | .1958879162841646 | 4.4487e-08 | |
a | 2.380232816746523 | 8.6228e-09 | au |
q | 1.913973970002859 | 1.0444e-07 | au |
i | 3.423687354507583 | 3.0194e-06 | deg |
node | 94.16242555187627 | 8.4778e-05 | deg |
peri | 247.90005746 | 8.5262e-05 | deg |
M | 38.99371580307644 | 9.2621e-06 | deg |
tp | 2459055.215358488223 (2020-Jul-24.71535849) | 3.4541e-05 | TDB |
period | 1341.305127430642 3.67 | 7.2887e-06 1.996e-08 | d yr |
n | .2683953059134304 | 1.4585e-09 | deg/d |
Q | 2.846491663490187 | 1.0312e-08 | au |
|
| | Orbit Determination Parameters
Additional Information
|